Regional Weather Roundup
Issued by NWS Sterling, VA

Home | Current Version | Previous Version | Graphics & Text | Print | Product List | Glossary On
Versions: 1 2 3 4 5 6 7 8 9 10 11 12 13 14 15 16 17 18 19 20 21 22 23 24 25 26 27
000
ASUS41 KLWX 201911
RWRLWX

REGIONAL WEATHER ROUNDUP
NATIONAL WEATHER SERVICE BALTIMORE MD/WASHINGTON DC
300 PM EDT SUN AUG 20 2017

Note: "FAIR" indicates few or no clouds below 12,000 feet
with no significant weather and/or obstructions to visibility.
 TC=TEMPERATURE CELSIUS

 * =Non NWS site. Station does not report precipitation (e.g. rain,
    snow, etc.), thunder, or fog.

DCZ001-MDZ009-015-VAZ040>042-051-053>054-202000-
WASHINGTON METRO

CITY           SKY/WX    TMP DP  RH WIND       PRES   REMARKS
WASHINGTON NAT SUNNY     87  62  43 N6        30.12F
DULLES         MOSUNNY   85  62  46 CALM      30.13F
ANDREWS AFB    SUNNY     84  58  41 NE6       30.11F
FT BELVOIR     SUNNY     87  62  43 CALM      30.11F
QUANTICO       SUNNY     85  68  56 SE5       30.12F
COLLEGE PARK*  SUNNY     83  61  46 CALM      30.12F
LEESBURG*      SUNNY     84  64  51 CALM      30.14F
MANASSAS*      SUNNY     85  65  51 VRB3      30.12F
GAITHERSBURG*  SUNNY     83  59  44 NW3       30.15F

$$

MDZ006>007-011-014-202000-
BALTIMORE METRO

CITY           SKY/WX    TMP DP  RH WIND       PRES   REMARKS
BWI AIRPORT    MOSUNNY   84  59  42 N7        30.11F
MD SCIENCE CTR   N/A     86  59  39 MISG      30.12F
MARTIN STATE   SUNNY     84  63  48 CALM      30.13F
ANNAPOLIS      SUNNY     82  69  64 SE9       30.11F
FORT MEADE*    SUNNY     82  59  44 CALM      30.14F

$$

MDZ012-015-019>023-202000-
MARYLAND EASTERN SHORE

CITY           SKY/WX    TMP DP  RH WIND       PRES   REMARKS
OCEAN CITY     SUNNY     80  70  71 E7        30.12F
SALISBURY      SUNNY     86  65  49 NW9       30.11F
BAY BRIDGE AP* SUNNY     81  63  54 N3        30.12F
CAMBRIDGE*     SUNNY     82  57  42 NW8G15    30.13S

$$

MDZ017>025-202000-
SOUTHERN MARYLAND

CITY           SKY/WX    TMP DP  RH WIND       PRES   REMARKS
PATUXENT RIVER MOSUNNY   82  69  64 NE8       30.12F
ST INIGOES     SUNNY     83  67  58 NE5       30.11F
LEONARDTOWN*   SUNNY     82  64  54 CALM      30.14F

$$

MDZ003>005-202000-
NORTH CENTRAL MARYLAND

CITY           SKY/WX    TMP DP  RH WIND       PRES   REMARKS
FREDERICK*     MOSUNNY   84  59  42 CALM      30.16F
HAGERSTOWN APT SUNNY     82  60  47 W6        30.14F
WESTMINSTER*   SUNNY     82  61  47 CALM      30.15F

$$

MDZ501>502-202000-
WESTERN MARYLAND

CITY           SKY/WX    TMP DP  RH WIND       PRES   REMARKS
OAKLAND*       SUNNY     73  55  53 W7        30.21S
CUMBERLAND*    MOSUNNY   82  63  51 SE3       30.18S

$$

VAZ025>031-202000-
SHENANDOAH VALLEY

CITY           SKY/WX    TMP DP  RH WIND       PRES   REMARKS
WINCHESTER*    MOSUNNY   81  63  54 E3        30.15F
FRONT ROYAL*   SUNNY     82  68  61 CALM      30.13F
LURAY*         SUNNY     86  63  45 SE3       30.13F
NEW MARKET*    MOSUNNY   86  64  47 CALM      30.11F
STAUNTON*      MOSUNNY   84  64  51 S5        30.17F
WAYNESBORO*    PTSUNNY   84  68  59 E5        30.16F

$$

WVZ021-048>050-054>055-202000-
EASTERN WEST VIRGINIA PANHANDLE

CITY           SKY/WX    TMP DP  RH WIND       PRES   REMARKS
MARTINSBURG    SUNNY     82  60  47 W5        30.13F
PETERSBURG*    SUNNY     88  71  58 N3        30.13F HX  93

$$

VAZ036>039-050-202000-
CENTRAL FOOTHILLS

CITY           SKY/WX    TMP DP  RH WIND       PRES   REMARKS
CHARLOTTESVILL MOSUNNY   87  67  51 N3        30.13F HX  90
CULPEPER*      SUNNY     85  67  54 CALM      30.13F
ORANGE*        SUNNY     86  66  51 CALM      30.13F
GORDONSVILLE*  SUNNY     85  69  58 NE3       30.12F
WARRENTON*     SUNNY     87  63  45 NW5       30.12F

$$

VAZ055>057-202000-
NORTH AND CENTRAL PIEDMONT

CITY           SKY/WX    TMP DP  RH WIND       PRES   REMARKS
FREDERICKSBRG* MOSUNNY   86  68  54 E5        30.11F
STAFFORD*      SUNNY     84  66  53 W5        30.16F

$$

NCZ024-NYZ072-PAZ021-071-VAZ022-071-202000-
OTHER REGIONAL OBSERVATIONS

CITY           SKY/WX    TMP DP  RH WIND       PRES   REMARKS
NEW YORK CITY  MOSUNNY   80  59  48 CALM      30.10S
PHILADELPHIA   MOSUNNY   84  55  36 NW8G17    30.10F
PITTSBURGH     MOSUNNY   80  58  46 CALM      30.15F
ROANOKE        MOSUNNY   91  61  36 SE7       30.15F HX  91
RICHMOND       MOSUNNY   88  69  53 VRB3      30.11F HX  92
RALEIGH        PTSUNNY   93  65  39 VRB5      30.10F HX  95

$$

ANZ530>537-202000-
MARINE OBSERVATIONS

STATION/POSITION TIME  TEMP    WIND        PRES
                       AIR SEA DIR/SP/G
                 (UTC) (F)     (DEG/KT/KT) (MB)
THOMAS PT LIGHT  1900   78 81  100/  4/  4   N/A
BALT KEY BRIDGE  1848   81     250/  3/  3 1019.6F
COVE POINT       1848   78      10/  4/  7 1020.8F
LEWISETTA        1848   80 83  100/  4/  5 1020.1F
SOLOMONS ISLAND  1848   81 82  350/  4/  5   N/A
PINEY POINT      1848          290/  3/  4   N/A

$$





USA.gov is the U.S. government's official web portal to all federal, state and local government web resources and services.